Weather in San Pedro de Ycuamandiyú

Paraguay     24°05′08″S   57°04′29″W
temp.,
°C
wind,
m/s
gust,
m/s
humid.,
%
clouds,
%
prec.,
mm/h
press.,
hPa
HPBL,
m
18 april, sun
sun1823:00+21se23730 0.0 101261
02:00+19se22780 0.0 101144
05:00+18e11830 0.0 101216
08:00+24ese12620 0.0 1014242
11:00+32ese00390 0.0 10131377
14:00+33s22300 0.0 10102480
17:00+27sse24460 0.0 1010122
20:00+22s22630 0.0 101229
19 april, mon
mon1923:00+20se23710 0.0 101258
02:00+19e24770 0.0 101282
05:00+18ese11830 0.0 101322
08:00+23e23600 0.0 1014237
11:00+32ene22350 0.0 10141431
14:00+34e01240 0.0 10102805
17:00+28sse22400 0.0 101037
20:00+22se23540 0.0 101144
20 april, tue
tue2023:00+20e29580 0.0 1012163
02:00+19e28630 0.0 1011166
05:00+18e28690 0.0 1012155
08:00+24ene310530 0.0 1014358
11:00+32ne34300 0.0 10131520
14:00+35ne12240 0.0 10103097
17:00+29se22360 0.0 100937
20:00+24ese313490 0.0 1010321
21 april, wed
wed2123:00+24e314470 0.0 1011456
02:00+21ene212570 0.0 1010301
05:00+20ene212600 0.0 1010300
08:00+24ne3124772 0.0 1012551
11:00+32ne46294 0.0 10111420
14:00+35ne34230 0.0 10082853
17:00+30e26347 0.0 1007128
20:00+26e313430 0.0 1010397
22 april, thu
thu2223:00+25e415450 0.0 1010573
02:00+23ene4154699 0.0 1010534
05:00+21ene21150100 0.0 1011357
08:00+24ne3104395 0.0 1013557
11:00+24sw2448100 0.0 1015296
14:00+24n2549100 0.0 1012521
17:00+22ne1465100 0.2 1011157
20:00+21se1169100 0.2 101115